This is the latest recevied weather packets stored in our database for station/object N0QV. If no packets are shown the sender has not sent any weather packets the latest 10 day(s).
| Time | Temp. | Humidity | Pressure | Rain* | Wind** | Luminosity | Snow |
|---|---|---|---|---|---|---|---|
| 1777659697 | 11.67° C | 38% | 1019 hPa | 0 mm | - | 851 W/m² | - |
| 1777659395 | 11.67° C | 36% | 1019.1 hPa | 0 mm | - | 250 W/m² | - |
| 1777659091 | 12.22° C | 33% | 1019 hPa | 0 mm | - | 888 W/m² | - |
| 1777658790 | 11.67° C | 37% | 1019.1 hPa | 0 mm | - | 823 W/m² | - |
| 1777658485 | 11.11° C | 39% | 1019.3 hPa | 0 mm | - | 855 W/m² | - |
| 1777658182 | 10.56° C | 38% | 1019.3 hPa | 0 mm | - | 866 W/m² | - |
| 1777657879 | 11.11° C | 38% | 1019.1 hPa | 0 mm | - | 219 W/m² | - |
| 1777657576 | 11.67° C | 39% | 1019.4 hPa | 0 mm | - | 217 W/m² | - |
| 1777657274 | 12.22° C | 39% | 1019.4 hPa | 0 mm | - | 487 W/m² | - |
| 1777656971 | 11.11° C | 38% | 1019.1 hPa | 0 mm | - | 807 W/m² | - |
| 1777656667 | 11.11° C | 37% | 1019.4 hPa | 0 mm | - | 274 W/m² | - |
| 1777656363 | 12.22° C | 43% | 1019.1 hPa | 0 mm | - | 203 W/m² | - |
| 1777656058 | 11.67° C | 40% | 1019.2 hPa | 0 mm | - | 907 W/m² | - |
| 1777655755 | 10.56° C | 41% | 1019.3 hPa | 0 mm | - | 314 W/m² | - |
| 1777655452 | 10.56° C | 40% | 1019 hPa | 0 mm | - | 328 W/m² | - |
| 1777655149 | 12.22° C | 38% | 1019.2 hPa | 0 mm | - | 861 W/m² | - |
| 1777654846 | 11.11° C | 37% | 1019.2 hPa | 0 mm | - | 983 W/m² | - |
| 1777654543 | 11.11° C | 38% | 1019.2 hPa | 0 mm | - | 372 W/m² | - |
| 1777654241 | 11.11° C | 40% | 1019.2 hPa | 0 mm | - | 891 W/m² | - |
| 1777653938 | 11.11° C | 40% | 1019.3 hPa | 0 mm | - | 723 W/m² | - |
| 1777653635 | 10° C | 40% | 1019.3 hPa | 0 mm | - | 347 W/m² | - |
| 1777653331 | 11.11° C | 38% | 1019.2 hPa | 0 mm | - | 218 W/m² | - |
| 1777653028 | 11.11° C | 37% | 1019.2 hPa | 0 mm | - | 808 W/m² | - |
| 1777652725 | 11.11° C | 39% | 1019.1 hPa | 0 mm | - | 691 W/m² | - |
| 1777652421 | 11.11° C | 41% | 1019 hPa | 0 mm | - | 711 W/m² | - |
* Rain latest hour (hover to see other rain measurements)
** Current wind speed in m/s (hover to see current wind gust speed)